Retour au catalogue

STARLINK-6245

ActifCommunicationsVLEO
NORAD 57079·PAYLOAD·🇺🇸 United States

Lancé Jun 22, 2023 depuis Vandenberg Space Force Base

Loading…

Prochains Passages (prochaines 24 heures)

TLE

FraisSource: CelesTrak SupGP

Époque: Sep 15, 2026, 03:15 UTC

1 57079C 23088AH  26258.13590278  .00022846  00000+0  82746-3 0  2586
2 57079  43.0014 105.9937 0002037 272.6075 191.8062 15.27566328    10

Suivez STARLINK-6245 en temps réel avec AllMySat

Download on the App Store